Time,TemperatureF,DewpointF,PressureIn,WindDirection,WindDirectionDegrees,WindSpeedMPH,WindSpeedGustMPH,Humidity,HourlyPrecipIn,Conditions,Clouds,dailyrainin,SoftwareType,DateUTC
2013-09-08 00:00:00,59.9,46.4,29.71,North,0,0.0,0.0,61,0.00,,,0.00,Weather View 32 v70,2013-09-08 07:00:00,
2013-09-08 00:10:00,59.9,46.8,29.71,North,0,0.0,0.0,62,0.00,,,0.00,Weather View 32 v70,2013-09-08 07:10:00,
2013-09-08 00:15:00,59.7,46.6,29.71,North,0,0.0,0.0,62,0.00,,,0.00,Weather View 32 v70,2013-09-08 07:15:00,
2013-09-08 00:20:00,59.7,47.1,29.71,North,0,0.0,0.0,63,0.00,,,0.00,Weather View 32 v70,2013-09-08 07:20:00,
2013-09-08 00:25:00,59.7,47.1,29.71,North,0,0.0,0.0,63,0.00,,,0.00,Weather View 32 v70,2013-09-08 07:25:00,
2013-09-08 00:35:00,59.7,47.5,29.71,North,0,0.0,0.0,64,0.00,,,0.00,Weather View 32 v70,2013-09-08 07:35:00,
2013-09-08 00:40:00,59.7,47.9,29.71,North,0,0.0,0.0,65,0.00,,,0.00,Weather View 32 v70,2013-09-08 07:40:00,
2013-09-08 00:49:00,59.5,48.1,29.71,North,0,0.0,0.0,66,0.00,,,0.00,Weather View 32 v70,2013-09-08 07:49:00,
2013-09-08 00:55:00,59.5,48.1,29.71,North,0,0.0,0.0,66,0.00,,,0.00,Weather View 32 v70,2013-09-08 07:55:00,
2013-09-08 01:00:00,59.5,48.5,29.71,North,0,0.0,0.0,67,0.00,,,0.00,Weather View 32 v70,2013-09-08 08:00:00,
2013-09-08 01:05:00,59.4,48.4,29.71,North,0,0.0,0.0,67,0.00,,,0.00,Weather View 32 v70,2013-09-08 08:05:00,
2013-09-08 01:14:00,59.4,48.4,29.74,North,0,0.0,0.0,67,0.00,,,0.00,Weather View 32 v70,2013-09-08 08:14:00,
2013-09-08 01:20:00,59.2,48.2,29.74,North,0,0.0,0.0,67,0.00,,,0.00,Weather View 32 v70,2013-09-08 08:20:00,
2013-09-08 01:25:00,59.2,47.8,29.74,North,0,0.0,0.0,66,0.00,,,0.00,Weather View 32 v70,2013-09-08 08:25:00,
2013-09-08 01:30:00,59.2,47.8,29.74,North,0,0.0,0.0,66,0.00,,,0.00,Weather View 32 v70,2013-09-08 08:30:00,
2013-09-08 01:39:00,59.0,47.6,29.74,North,0,0.0,0.0,66,0.00,,,0.00,Weather View 32 v70,2013-09-08 08:39:00,
2013-09-08 01:45:00,58.8,47.9,29.74,North,0,0.0,0.0,67,0.00,,,0.00,Weather View 32 v70,2013-09-08 08:45:00,
2013-09-08 01:50:00,58.8,47.9,29.74,North,0,0.0,0.0,67,0.00,,,0.00,Weather View 32 v70,2013-09-08 08:50:00,
2013-09-08 01:59:00,58.8,48.3,29.74,North,0,0.0,0.0,68,0.00,,,0.00,Weather View 32 v70,2013-09-08 08:59:00,
2013-09-08 02:05:00,58.8,48.6,29.74,North,0,0.0,0.0,69,0.00,,,0.00,Weather View 32 v70,2013-09-08 09:05:00,
2013-09-08 02:10:00,58.8,48.6,29.74,North,0,0.0,0.0,69,0.00,,,0.00,Weather View 32 v70,2013-09-08 09:10:00,
2013-09-08 02:15:00,58.6,48.5,29.71,North,0,0.0,0.0,69,0.00,,,0.00,Weather View 32 v70,2013-09-08 09:15:00,
2013-09-08 02:20:00,58.6,48.5,29.71,North,0,0.0,0.0,69,0.00,,,0.00,Weather View 32 v70,2013-09-08 09:20:00,
2013-09-08 02:30:00,58.6,48.9,29.74,North,0,0.0,0.0,70,0.00,,,0.00,Weather View 32 v70,2013-09-08 09:30:00,
2013-09-08 02:35:00,58.6,48.9,29.74,North,0,0.0,0.0,70,0.00,,,0.00,Weather View 32 v70,2013-09-08 09:35:00,
2013-09-08 02:40:00,58.6,48.9,29.74,North,0,0.0,0.0,70,0.00,,,0.00,Weather View 32 v70,2013-09-08 09:40:00,
2013-09-08 02:50:00,58.6,49.2,29.74,North,0,0.0,0.0,71,0.00,,,0.00,Weather View 32 v70,2013-09-08 09:50:00,
2013-09-08 02:55:00,58.5,49.1,29.74,NNE,31,0.0,0.0,71,0.00,,,0.00,Weather View 32 v70,2013-09-08 09:55:00,
2013-09-08 03:00:00,58.5,49.1,29.74,NNE,31,0.0,0.0,71,0.00,,,0.00,Weather View 32 v70,2013-09-08 10:00:00,
2013-09-08 03:05:00,58.5,49.1,29.74,NNE,31,0.0,0.0,71,0.00,,,0.00,Weather View 32 v70,2013-09-08 10:05:00,
2013-09-08 03:15:00,58.5,49.1,29.74,NNE,31,0.0,0.0,71,0.00,,,0.00,Weather View 32 v70,2013-09-08 10:15:00,
2013-09-08 03:20:00,58.5,49.4,29.74,NNE,32,0.0,0.0,72,0.00,,,0.00,Weather View 32 v70,2013-09-08 10:20:00,
2013-09-08 03:25:00,58.5,49.4,29.74,NNE,32,0.0,0.0,72,0.00,,,0.00,Weather View 32 v70,2013-09-08 10:25:00,
2013-09-08 03:30:00,58.5,49.4,29.74,NE,36,0.0,0.0,72,0.00,,,0.00,Weather View 32 v70,2013-09-08 10:30:00,
2013-09-08 03:40:00,58.5,49.4,29.74,NE,36,0.0,0.0,72,0.00,,,0.00,Weather View 32 v70,2013-09-08 10:40:00,
2013-09-08 03:45:00,58.5,49.4,29.74,NE,36,0.0,0.0,72,0.00,,,0.00,Weather View 32 v70,2013-09-08 10:45:00,
2013-09-08 03:54:00,58.3,49.3,29.74,NE,36,0.0,0.0,72,0.00,,,0.00,Weather View 32 v70,2013-09-08 10:54:00,
2013-09-08 04:00:00,58.3,49.3,29.74,NE,36,0.0,0.0,72,0.00,,,0.00,Weather View 32 v70,2013-09-08 11:00:00,
2013-09-08 04:05:00,58.1,49.1,29.74,NE,36,0.0,0.0,72,0.00,,,0.00,Weather View 32 v70,2013-09-08 11:05:00,
2013-09-08 04:10:00,58.1,49.1,29.74,NE,36,0.0,0.0,72,0.00,,,0.00,Weather View 32 v70,2013-09-08 11:10:00,
2013-09-08 04:20:00,57.9,49.3,29.74,NE,36,0.0,0.0,73,0.00,,,0.00,Weather View 32 v70,2013-09-08 11:20:00,
2013-09-08 04:25:00,57.9,49.3,29.74,NE,36,0.0,0.0,73,0.00,,,0.00,Weather View 32 v70,2013-09-08 11:25:00,
2013-09-08 04:34:00,57.9,49.3,29.74,NE,36,0.0,0.0,73,0.00,,,0.00,Weather View 32 v70,2013-09-08 11:34:00,
2013-09-08 04:39:00,57.9,49.3,29.74,NE,36,0.0,0.0,73,0.00,,,0.00,Weather View 32 v70,2013-09-08 11:39:00,
2013-09-08 04:45:00,58.1,49.5,29.74,NE,36,0.0,0.0,73,0.00,,,0.00,Weather View 32 v70,2013-09-08 11:45:00,
2013-09-08 04:50:00,58.1,49.5,29.74,NE,36,0.0,0.0,73,0.00,,,0.00,Weather View 32 v70,2013-09-08 11:50:00,
2013-09-08 04:59:00,58.1,49.8,29.74,NE,36,0.0,0.0,74,0.00,,,0.00,Weather View 32 v70,2013-09-08 11:59:00,
2013-09-08 05:05:00,58.3,50.0,29.74,NE,36,0.0,0.0,74,0.00,,,0.00,Weather View 32 v70,2013-09-08 12:05:00,
2013-09-08 05:10:00,58.5,50.2,29.74,NE,36,0.0,0.0,74,0.00,,,0.00,Weather View 32 v70,2013-09-08 12:10:00,
2013-09-08 05:15:00,58.5,50.2,29.74,NE,36,0.0,0.0,74,0.00,,,0.00,Weather View 32 v70,2013-09-08 12:15:00,
2013-09-08 05:24:00,58.6,50.7,29.74,NE,36,0.0,0.0,75,0.00,,,0.00,Weather View 32 v70,2013-09-08 12:24:00,
2013-09-08 05:30:00,58.8,50.9,29.74,NE,36,0.0,0.0,75,0.00,,,0.00,Weather View 32 v70,2013-09-08 12:30:00,
2013-09-08 05:35:00,58.8,50.9,29.74,NE,36,0.0,0.0,75,0.00,,,0.00,Weather View 32 v70,2013-09-08 12:35:00,
2013-09-08 05:40:00,58.8,50.9,29.74,NE,36,0.0,0.0,75,0.00,,,0.00,Weather View 32 v70,2013-09-08 12:40:00,
2013-09-08 05:50:00,58.8,51.3,29.74,NE,36,0.0,0.0,76,0.00,,,0.00,Weather View 32 v70,2013-09-08 12:50:00,
2013-09-08 05:55:00,58.8,51.6,29.74,NE,36,0.0,0.0,77,0.00,,,0.00,Weather View 32 v70,2013-09-08 12:55:00,
2013-09-08 06:00:00,58.8,51.6,29.74,NE,36,0.0,0.0,77,0.00,,,0.00,Weather View 32 v70,2013-09-08 13:00:00,
2013-09-08 06:09:00,58.6,51.4,29.74,NE,36,0.0,0.0,77,0.00,,,0.00,Weather View 32 v70,2013-09-08 13:09:00,
2013-09-08 06:15:00,58.5,51.3,29.74,NE,36,0.0,0.0,77,0.00,,,0.00,Weather View 32 v70,2013-09-08 13:15:00,
2013-09-08 06:20:00,58.5,50.9,29.74,NE,36,0.0,0.0,76,0.00,,,0.00,Weather View 32 v70,2013-09-08 13:20:00,
2013-09-08 06:25:00,58.3,50.7,29.74,NE,36,0.0,0.0,76,0.00,,,0.00,Weather View 32 v70,2013-09-08 13:25:00,
2013-09-08 06:35:00,58.1,50.6,29.74,NE,36,0.0,0.0,76,0.00,,,0.00,Weather View 32 v70,2013-09-08 13:35:00,
2013-09-08 06:40:00,58.1,50.6,29.74,NE,36,0.0,0.0,76,0.00,,,0.00,Weather View 32 v70,2013-09-08 13:40:00,
2013-09-08 06:49:00,58.3,50.7,29.74,NE,36,0.0,0.0,76,0.00,,,0.00,Weather View 32 v70,2013-09-08 13:49:00,
2013-09-08 06:55:00,58.5,51.3,29.74,NE,36,0.0,0.0,77,0.00,,,0.00,Weather View 32 v70,2013-09-08 13:55:00,
2013-09-08 07:00:00,58.6,51.4,29.74,NE,36,0.0,0.0,77,0.00,,,0.00,Weather View 32 v70,2013-09-08 14:00:00,
2013-09-08 07:05:00,58.6,51.4,29.74,NE,36,0.0,0.0,77,0.00,,,0.00,Weather View 32 v70,2013-09-08 14:05:00,
2013-09-08 07:14:00,58.6,51.8,29.74,NE,36,0.0,0.0,78,0.00,,,0.00,Weather View 32 v70,2013-09-08 14:14:00,
2013-09-08 07:20:00,58.6,52.1,29.74,NE,36,0.0,0.0,79,0.00,,,0.00,Weather View 32 v70,2013-09-08 14:20:00,
2013-09-08 07:25:00,58.6,52.1,29.74,NE,36,0.0,0.0,79,0.00,,,0.00,Weather View 32 v70,2013-09-08 14:25:00,
2013-09-08 07:30:00,58.6,52.1,29.77,NE,36,0.0,0.0,79,0.00,,,0.00,Weather View 32 v70,2013-09-08 14:30:00,
2013-09-08 07:35:00,58.6,52.5,29.77,NE,36,0.0,0.0,80,0.00,,,0.00,Weather View 32 v70,2013-09-08 14:35:00,
2013-09-08 07:44:00,58.5,52.3,29.77,NE,36,0.0,0.0,80,0.00,,,0.00,Weather View 32 v70,2013-09-08 14:44:00,
2013-09-08 07:50:00,58.6,52.8,29.77,NE,36,0.0,0.0,81,0.00,,,0.00,Weather View 32 v70,2013-09-08 14:50:00,
2013-09-08 07:59:00,58.8,53.3,29.77,NE,36,0.0,0.0,82,0.00,,,0.00,Weather View 32 v70,2013-09-08 14:59:00,
2013-09-08 08:05:00,59.0,53.5,29.77,NE,36,0.0,0.0,82,0.00,,,0.00,Weather View 32 v70,2013-09-08 15:05:00,
2013-09-08 08:10:00,59.2,53.7,29.77,NE,36,0.0,0.0,82,0.00,,,0.00,Weather View 32 v70,2013-09-08 15:10:00,
2013-09-08 08:15:00,59.2,54.0,29.77,NE,36,0.0,0.0,83,0.00,,,0.00,Weather View 32 v70,2013-09-08 15:15:00,
2013-09-08 08:24:00,59.4,54.2,29.77,NE,36,0.0,0.0,83,0.00,,,0.00,Weather View 32 v70,2013-09-08 15:24:00,
2013-09-08 08:30:00,59.5,54.4,29.77,NE,36,0.0,0.0,83,0.00,,,0.00,Weather View 32 v70,2013-09-08 15:30:00,
2013-09-08 08:35:00,59.7,54.9,29.77,NE,36,0.0,0.0,84,0.00,,,0.00,Weather View 32 v70,2013-09-08 15:35:00,
2013-09-08 08:40:00,59.7,54.9,29.77,NE,36,0.0,0.0,84,0.00,,,0.00,Weather View 32 v70,2013-09-08 15:40:00,
2013-09-08 08:50:00,60.1,55.2,29.77,NE,36,0.0,0.0,84,0.00,,,0.00,Weather View 32 v70,2013-09-08 15:50:00,
2013-09-08 08:55:00,60.1,55.5,29.77,NE,36,0.0,0.0,85,0.00,,,0.00,Weather View 32 v70,2013-09-08 15:55:00,
2013-09-08 09:00:00,60.1,55.5,29.77,NE,36,0.0,0.0,85,0.00,,,0.00,Weather View 32 v70,2013-09-08 16:00:00,
2013-09-08 09:09:00,60.1,55.5,29.77,NE,36,0.0,0.0,85,0.00,,,0.00,Weather View 32 v70,2013-09-08 16:09:00,
2013-09-08 09:15:00,60.1,55.5,29.77,NE,36,0.0,0.0,85,0.00,,,0.00,Weather View 32 v70,2013-09-08 16:15:00,
2013-09-08 09:20:00,60.1,55.5,29.77,NE,36,0.0,0.0,85,0.00,,,0.00,Weather View 32 v70,2013-09-08 16:20:00,
2013-09-08 09:25:00,60.1,55.9,29.77,WNW,302,0.0,0.0,86,0.00,,,0.00,Weather View 32 v70,2013-09-08 16:25:00,
2013-09-08 09:30:00,60.3,56.0,29.77,WNW,302,0.0,0.0,86,0.00,,,0.00,Weather View 32 v70,2013-09-08 16:30:00,
2013-09-08 09:40:00,60.4,56.2,29.77,WNW,302,0.0,0.0,86,0.00,,,0.00,Weather View 32 v70,2013-09-08 16:40:00,
2013-09-08 09:45:00,60.4,56.2,29.77,WNW,302,0.0,0.0,86,0.00,,,0.00,Weather View 32 v70,2013-09-08 16:45:00,
2013-09-08 09:54:00,60.6,56.4,29.77,WNW,302,0.0,0.0,86,0.00,,,0.00,Weather View 32 v70,2013-09-08 16:54:00,
2013-09-08 10:00:00,60.6,56.4,29.77,WNW,302,0.0,0.0,86,0.00,,,0.00,Weather View 32 v70,2013-09-08 17:00:00,
2013-09-08 10:05:00,60.6,56.4,29.77,WNW,302,0.0,0.0,86,0.00,,,0.00,Weather View 32 v70,2013-09-08 17:05:00,
2013-09-08 10:10:00,60.8,56.6,29.77,West,281,0.0,0.0,86,0.00,,,0.00,Weather View 32 v70,2013-09-08 17:10:00,
2013-09-08 10:15:00,60.8,56.6,29.77,West,281,0.0,0.0,86,0.00,,,0.00,Weather View 32 v70,2013-09-08 17:15:00,
2013-09-08 10:24:00,61.2,56.6,29.77,NNW,328,0.0,0.0,85,0.00,,,0.00,Weather View 32 v70,2013-09-08 17:24:00,
2013-09-08 10:30:00,61.2,56.6,29.77,NW,306,0.0,0.0,85,0.00,,,0.00,Weather View 32 v70,2013-09-08 17:30:00,
2013-09-08 10:35:00,61.2,56.6,29.77,NW,307,0.0,0.0,85,0.00,,,0.00,Weather View 32 v70,2013-09-08 17:35:00,
2013-09-08 10:40:00,61.3,56.4,29.77,NW,307,0.0,0.0,84,0.00,,,0.00,Weather View 32 v70,2013-09-08 17:40:00,
2013-09-08 10:46:00,61.7,56.8,29.77,NW,316,0.0,0.0,84,0.00,,,0.00,Weather View 32 v70,2013-09-08 17:46:00,
2013-09-08 10:55:00,63.9,58.9,29.77,NE,54,0.0,0.0,84,0.00,,,0.00,Weather View 32 v70,2013-09-08 17:55:00,
2013-09-08 11:00:00,64.8,59.8,29.77,South,182,0.0,0.0,84,0.00,,,0.00,Weather View 32 v70,2013-09-08 18:00:00,
2013-09-08 11:09:00,64.2,58.9,29.77,ENE,67,0.0,0.0,83,0.00,,,0.00,Weather View 32 v70,2013-09-08 18:09:00,
2013-09-08 11:15:00,63.9,57.2,29.77,NNW,343,0.0,0.0,79,0.00,,,0.00,Weather View 32 v70,2013-09-08 18:15:00,
2013-09-08 11:20:00,64.0,56.7,29.77,ENE,75,0.0,0.0,77,0.00,,,0.00,Weather View 32 v70,2013-09-08 18:20:00,
2013-09-08 11:25:00,64.6,56.5,29.77,SE,146,0.0,0.0,75,0.00,,,0.00,Weather View 32 v70,2013-09-08 18:25:00,
2013-09-08 11:30:00,65.3,55.2,29.77,WSW,254,0.0,0.0,70,0.00,,,0.00,Weather View 32 v70,2013-09-08 18:30:00,
2013-09-08 11:40:00,65.5,49.8,29.77,NE,56,0.0,0.0,57,0.00,,,0.00,Weather View 32 v70,2013-09-08 18:40:00,
2013-09-08 11:45:00,65.8,49.2,29.77,NNE,28,0.0,0.0,55,0.00,,,0.00,Weather View 32 v70,2013-09-08 18:45:00,
2013-09-08 11:54:00,66.9,48.7,29.77,WSW,248,0.0,0.0,52,0.00,,,0.00,Weather View 32 v70,2013-09-08 18:54:00,
2013-09-08 12:00:00,66.9,45.4,29.77,WSW,249,0.0,0.0,46,0.00,,,0.00,Weather View 32 v70,2013-09-08 19:00:00,
2013-09-08 12:05:00,66.9,45.4,29.77,NE,54,0.0,0.0,46,0.00,,,0.00,Weather View 32 v70,2013-09-08 19:05:00,
2013-09-08 12:10:00,68.0,47.5,29.77,South,191,0.0,0.0,48,0.00,,,0.00,Weather View 32 v70,2013-09-08 19:10:00,
2013-09-08 12:15:00,68.2,45.4,29.77,ENE,59,0.0,0.0,44,0.00,,,0.00,Weather View 32 v70,2013-09-08 19:15:00,
2013-09-08 12:25:00,68.2,44.2,29.77,WNW,288,0.0,0.0,42,0.00,,,0.00,Weather View 32 v70,2013-09-08 19:25:00,
2013-09-08 12:30:00,68.4,44.3,29.77,NW,314,0.0,0.0,42,0.00,,,0.00,Weather View 32 v70,2013-09-08 19:30:00,
2013-09-08 12:35:00,68.5,43.2,29.77,West,265,0.0,0.0,40,0.00,,,0.00,Weather View 32 v70,2013-09-08 19:35:00,
2013-09-08 12:40:00,69.1,43.7,29.77,WNW,284,0.0,0.0,40,0.00,,,0.00,Weather View 32 v70,2013-09-08 19:40:00,
2013-09-08 12:47:00,69.3,43.2,29.77,WNW,294,0.0,0.0,39,0.00,,,0.00,Weather View 32 v70,2013-09-08 19:47:00,
2013-09-08 12:55:00,69.1,41.6,29.77,WNW,301,0.0,0.0,37,0.00,,,0.00,Weather View 32 v70,2013-09-08 19:55:00,
2013-09-08 13:00:00,69.3,42.5,29.77,NNW,327,0.0,0.0,38,0.00,,,0.00,Weather View 32 v70,2013-09-08 20:00:00,
2013-09-08 13:09:00,69.8,42.3,29.77,West,265,0.0,0.0,37,0.00,,,0.00,Weather View 32 v70,2013-09-08 20:09:00,
2013-09-08 13:15:00,69.8,41.6,29.74,NW,321,0.0,0.0,36,0.00,,,0.00,Weather View 32 v70,2013-09-08 20:15:00,
2013-09-08 13:20:00,70.0,41.0,29.74,NW,320,0.0,0.0,35,0.00,,,0.00,Weather View 32 v70,2013-09-08 20:20:00,
2013-09-08 13:25:00,70.0,41.0,29.74,West,266,0.0,0.0,35,0.00,,,0.00,Weather View 32 v70,2013-09-08 20:25:00,
2013-09-08 13:34:00,70.3,40.6,29.74,WSW,246,0.0,0.0,34,0.00,,,0.00,Weather View 32 v70,2013-09-08 20:34:00,
2013-09-08 13:40:00,70.5,41.5,29.74,NW,308,0.0,0.0,35,0.00,,,0.00,Weather View 32 v70,2013-09-08 20:40:00,
2013-09-08 13:45:00,70.7,40.9,29.74,West,276,0.0,0.0,34,0.00,,,0.00,Weather View 32 v70,2013-09-08 20:45:00,
2013-09-08 13:54:00,71.1,41.2,29.74,North,353,0.0,0.0,34,0.00,,,0.00,Weather View 32 v70,2013-09-08 20:54:00,
2013-09-08 14:00:00,71.4,40.7,29.74,West,276,5.0,6.0,33,0.00,,,0.00,Weather View 32 v70,2013-09-08 21:00:00,
2013-09-08 14:05:00,71.6,40.9,29.74,WNW,303,3.0,6.0,33,0.00,,,0.00,Weather View 32 v70,2013-09-08 21:05:00,
2013-09-08 14:10:00,71.8,41.1,29.74,NW,321,4.0,6.0,33,0.00,,,0.00,Weather View 32 v70,2013-09-08 21:10:00,
2013-09-08 14:15:00,71.8,41.1,29.74,North,4,0.0,6.0,33,0.00,,,0.00,Weather View 32 v70,2013-09-08 21:15:00,
2013-09-08 14:25:00,71.6,40.9,29.74,North,1,3.0,6.0,33,0.00,,,0.00,Weather View 32 v70,2013-09-08 21:25:00,
2013-09-08 14:30:00,71.6,40.9,29.74,NNW,339,2.0,8.0,33,0.00,,,0.00,Weather View 32 v70,2013-09-08 21:30:00,
2013-09-08 14:35:00,71.6,40.9,29.74,WNW,293,3.0,8.0,33,0.00,,,0.00,Weather View 32 v70,2013-09-08 21:35:00,
2013-09-08 14:40:00,71.6,40.9,29.74,NW,321,0.0,8.0,33,0.00,,,0.00,Weather View 32 v70,2013-09-08 21:40:00,
2013-09-08 14:48:00,71.4,40.7,29.74,West,280,3.0,8.0,33,0.00,,,0.00,Weather View 32 v70,2013-09-08 21:48:00,
2013-09-08 14:55:00,72.0,40.4,29.74,NW,308,4.0,8.0,32,0.00,,,0.00,Weather View 32 v70,2013-09-08 21:55:00,
2013-09-08 15:00:00,72.3,40.7,29.74,WNW,286,3.0,8.0,32,0.00,,,0.00,Weather View 32 v70,2013-09-08 22:00:00,
2013-09-08 15:10:00,72.5,40.9,29.74,SE,127,0.0,9.0,32,0.00,,,0.00,Weather View 32 v70,2013-09-08 22:10:00,
2013-09-08 15:15:00,72.5,40.9,29.74,NW,310,5.0,9.0,32,0.00,,,0.00,Weather View 32 v70,2013-09-08 22:15:00,
2013-09-08 15:20:00,72.5,40.9,29.74,North,353,3.0,9.0,32,0.00,,,0.00,Weather View 32 v70,2013-09-08 22:20:00,
2013-09-08 15:29:00,72.5,40.9,29.71,NW,308,4.0,9.0,32,0.00,,,0.00,Weather View 32 v70,2013-09-08 22:29:00,
2013-09-08 15:34:00,72.7,41.0,29.71,NW,306,6.0,9.0,32,0.00,,,0.00,Weather View 32 v70,2013-09-08 22:34:00,
2013-09-08 15:40:00,72.7,41.0,29.71,WNW,300,4.0,9.0,32,0.00,,,0.00,Weather View 32 v70,2013-09-08 22:40:00,
2013-09-08 15:45:00,72.9,40.4,29.71,WNW,296,0.0,9.0,31,0.00,,,0.00,Weather View 32 v70,2013-09-08 22:45:00,
2013-09-08 15:54:00,72.9,40.4,29.71,NNW,345,3.0,9.0,31,0.00,,,0.00,Weather View 32 v70,2013-09-08 22:54:00,
2013-09-08 16:00:00,73.2,40.7,29.71,West,269,5.0,9.0,31,0.00,,,0.00,Weather View 32 v70,2013-09-08 23:00:00,
2013-09-08 16:05:00,73.4,40.8,29.71,WNW,284,4.0,9.0,31,0.00,,,0.00,Weather View 32 v70,2013-09-08 23:05:00,
2013-09-08 16:10:00,73.6,41.0,29.71,WNW,303,4.0,8.0,31,0.00,,,0.00,Weather View 32 v70,2013-09-08 23:10:00,
2013-09-08 16:20:00,73.4,40.8,29.71,NW,306,0.0,8.0,31,0.00,,,0.00,Weather View 32 v70,2013-09-08 23:20:00,
2013-09-08 16:25:00,72.7,41.0,29.71,West,262,4.0,8.0,32,0.00,,,0.00,Weather View 32 v70,2013-09-08 23:25:00,
2013-09-08 16:30:00,72.9,39.5,29.71,WNW,285,0.0,8.0,30,0.00,,,0.00,Weather View 32 v70,2013-09-08 23:30:00,
2013-09-08 16:35:00,73.0,40.5,29.71,WNW,289,3.0,8.0,31,0.00,,,0.00,Weather View 32 v70,2013-09-08 23:35:00,
2013-09-08 16:44:00,73.4,40.8,29.71,WNW,295,4.0,8.0,31,0.00,,,0.00,Weather View 32 v70,2013-09-08 23:44:00,
2013-09-08 16:50:00,73.8,39.4,29.71,NNW,330,4.0,8.0,29,0.00,,,0.00,Weather View 32 v70,2013-09-08 23:50:00,
2013-09-08 16:59:00,73.9,41.3,29.71,WNW,300,4.0,8.0,31,0.00,,,0.00,Weather View 32 v70,2013-09-08 23:59:00,
2013-09-08 17:05:00,74.3,38.1,29.71,WNW,298,6.0,8.0,27,0.00,,,0.00,Weather View 32 v70,2013-09-09 00:05:00,
2013-09-08 17:10:00,74.7,38.4,29.71,West,271,3.0,8.0,27,0.00,,,0.00,Weather View 32 v70,2013-09-09 00:10:00,
2013-09-08 17:15:00,74.8,38.5,29.71,WNW,289,5.0,8.0,27,0.00,,,0.00,Weather View 32 v70,2013-09-09 00:15:00,
2013-09-08 17:20:00,75.0,36.7,29.71,West,271,0.0,8.0,25,0.00,,,0.00,Weather View 32 v70,2013-09-09 00:20:00,
2013-09-08 17:25:00,75.0,36.7,29.71,WNW,291,3.0,8.0,25,0.00,,,0.00,Weather View 32 v70,2013-09-09 00:25:00,
2013-09-08 17:35:00,74.8,36.6,29.71,WNW,285,4.0,8.0,25,0.00,,,0.00,Weather View 32 v70,2013-09-09 00:35:00,
2013-09-08 17:40:00,75.4,37.0,29.71,NW,305,4.0,7.0,25,0.00,,,0.00,Weather View 32 v70,2013-09-09 00:40:00,
2013-09-08 17:45:00,75.4,38.0,29.68,WNW,290,0.0,7.0,26,0.00,,,0.00,Weather View 32 v70,2013-09-09 00:45:00,
2013-09-08 17:55:00,75.7,36.3,29.68,West,277,5.0,7.0,24,0.00,,,0.00,Weather View 32 v70,2013-09-09 00:55:00,
2013-09-08 18:00:00,75.9,36.4,29.71,WNW,285,6.0,7.0,24,0.00,,,0.00,Weather View 32 v70,2013-09-09 01:00:00,
2013-09-08 18:09:00,75.9,37.5,29.71,NW,320,0.0,7.0,25,0.00,,,0.00,Weather View 32 v70,2013-09-09 01:09:00,
2013-09-08 18:15:00,75.9,35.4,29.68,West,265,3.0,7.0,23,0.00,,,0.00,Weather View 32 v70,2013-09-09 01:15:00,
2013-09-08 18:20:00,75.7,35.2,29.68,NW,326,6.0,7.0,23,0.00,,,0.00,Weather View 32 v70,2013-09-09 01:20:00,
2013-09-08 18:25:00,75.4,34.9,29.68,NW,319,2.0,7.0,23,0.00,,,0.00,Weather View 32 v70,2013-09-09 01:25:00,
2013-09-08 18:30:00,75.2,34.8,29.68,West,266,0.0,7.0,23,0.00,,,0.00,Weather View 32 v70,2013-09-09 01:30:00,
2013-09-08 18:35:00,74.8,34.5,29.68,NW,324,2.0,7.0,23,0.00,,,0.00,Weather View 32 v70,2013-09-09 01:35:00,
2013-09-08 18:40:00,74.5,35.2,29.68,North,4,0.0,6.0,24,0.00,,,0.00,Weather View 32 v70,2013-09-09 01:40:00,
2013-09-08 18:45:00,73.9,34.8,29.68,West,281,0.0,6.0,24,0.00,,,0.00,Weather View 32 v70,2013-09-09 01:45:00,
2013-09-08 18:50:00,73.4,35.3,29.68,WSW,256,0.0,6.0,25,0.00,,,0.00,Weather View 32 v70,2013-09-09 01:50:00,
2013-09-08 19:00:00,72.1,36.2,29.68,WSW,250,0.0,6.0,27,0.00,,,0.00,Weather View 32 v70,2013-09-09 02:00:00,
2013-09-08 19:05:00,71.4,37.4,29.68,WSW,250,0.0,6.0,29,0.00,,,0.00,Weather View 32 v70,2013-09-09 02:05:00,
2013-09-08 19:10:00,70.7,39.3,29.68,WSW,250,0.0,6.0,32,0.00,,,0.00,Weather View 32 v70,2013-09-09 02:10:00,
2013-09-08 19:20:00,70.2,38.8,29.68,WSW,250,0.0,6.0,32,0.00,,,0.00,Weather View 32 v70,2013-09-09 02:20:00,
2013-09-08 19:30:00,69.3,38.9,29.68,WSW,250,0.0,4.0,33,0.00,,,0.00,Weather View 32 v70,2013-09-09 02:30:00,
2013-09-08 19:35:00,68.9,38.5,29.68,WSW,250,0.0,4.0,33,0.00,,,0.00,Weather View 32 v70,2013-09-09 02:35:00,
2013-09-08 19:40:00,68.7,39.1,29.68,WSW,250,0.0,4.0,34,0.00,,,0.00,Weather View 32 v70,2013-09-09 02:40:00,
2013-09-08 19:45:00,68.4,38.8,29.68,WSW,250,0.0,3.0,34,0.00,,,0.00,Weather View 32 v70,2013-09-09 02:45:00,
2013-09-08 19:51:00,68.0,39.3,29.68,WSW,250,0.0,0.0,35,0.00,,,0.00,Weather View 32 v70,2013-09-09 02:51:00,
2013-09-08 20:00:00,67.5,39.5,29.68,WSW,250,0.0,0.0,36,0.00,,,0.00,Weather View 32 v70,2013-09-09 03:00:00,
2013-09-08 20:05:00,67.3,39.3,29.68,WSW,250,0.0,0.0,36,0.00,,,0.00,Weather View 32 v70,2013-09-09 03:05:00,
2013-09-08 20:15:00,66.9,39.0,29.68,WSW,250,0.0,0.0,36,0.00,,,0.00,Weather View 32 v70,2013-09-09 03:15:00,
2013-09-08 20:20:00,66.9,39.7,29.68,WSW,250,0.0,0.0,37,0.00,,,0.00,Weather View 32 v70,2013-09-09 03:20:00,
2013-09-08 20:25:00,66.7,39.6,29.68,WSW,250,0.0,0.0,37,0.00,,,0.00,Weather View 32 v70,2013-09-09 03:25:00,
2013-09-08 20:30:00,66.6,40.1,29.68,WSW,250,0.0,0.0,38,0.00,,,0.00,Weather View 32 v70,2013-09-09 03:30:00,
2013-09-08 20:35:00,66.6,40.1,29.68,WSW,250,0.0,0.0,38,0.00,,,0.00,Weather View 32 v70,2013-09-09 03:35:00,
2013-09-08 20:45:00,66.4,40.6,29.68,WSW,250,0.0,0.0,39,0.00,,,0.00,Weather View 32 v70,2013-09-09 03:45:00,
2013-09-08 20:50:00,66.2,40.5,29.68,WSW,250,0.0,0.0,39,0.00,,,0.00,Weather View 32 v70,2013-09-09 03:50:00,
2013-09-08 20:55:00,66.2,40.5,29.68,WSW,250,0.0,0.0,39,0.00,,,0.00,Weather View 32 v70,2013-09-09 03:55:00,
2013-09-08 21:05:00,66.0,40.9,29.68,WSW,250,0.0,0.0,40,0.00,,,0.00,Weather View 32 v70,2013-09-09 04:05:00,
2013-09-08 21:10:00,65.8,41.4,29.68,WSW,250,0.0,0.0,41,0.00,,,0.00,Weather View 32 v70,2013-09-09 04:10:00,
2013-09-08 21:20:00,65.7,41.3,29.68,WSW,250,0.0,0.0,41,0.00,,,0.00,Weather View 32 v70,2013-09-09 04:20:00,
2013-09-08 21:25:00,65.5,41.7,29.68,WSW,250,0.0,0.0,42,0.00,,,0.00,Weather View 32 v70,2013-09-09 04:25:00,
2013-09-08 21:30:00,65.5,42.3,29.68,WSW,250,0.0,0.0,43,0.00,,,0.00,Weather View 32 v70,2013-09-09 04:30:00,
2013-09-08 21:40:00,65.1,42.0,29.68,WSW,250,0.0,0.0,43,0.00,,,0.00,Weather View 32 v70,2013-09-09 04:40:00,
2013-09-08 21:45:00,65.1,42.6,29.68,WSW,250,0.0,0.0,44,0.00,,,0.00,Weather View 32 v70,2013-09-09 04:45:00,
2013-09-08 21:50:00,64.9,42.4,29.68,WSW,250,0.0,0.0,44,0.00,,,0.00,Weather View 32 v70,2013-09-09 04:50:00,
2013-09-08 22:00:00,64.8,42.3,29.71,WSW,250,0.0,0.0,44,0.00,,,0.00,Weather View 32 v70,2013-09-09 05:00:00,
2013-09-08 22:05:00,64.8,42.3,29.71,WSW,250,0.0,0.0,44,0.00,,,0.00,Weather View 32 v70,2013-09-09 05:05:00,
2013-09-08 22:10:00,64.6,42.7,29.71,WSW,250,0.0,0.0,45,0.00,,,0.00,Weather View 32 v70,2013-09-09 05:10:00,
2013-09-08 22:15:00,64.4,42.5,29.71,WSW,250,0.0,0.0,45,0.00,,,0.00,Weather View 32 v70,2013-09-09 05:15:00,
2013-09-08 22:20:00,64.4,42.5,29.71,WSW,250,0.0,0.0,45,0.00,,,0.00,Weather View 32 v70,2013-09-09 05:20:00,
2013-09-08 22:25:00,64.4,42.5,29.71,WSW,250,0.0,0.0,45,0.00,,,0.00,Weather View 32 v70,2013-09-09 05:25:00,
2013-09-08 22:35:00,64.2,43.0,29.71,WSW,250,0.0,0.0,46,0.00,,,0.00,Weather View 32 v70,2013-09-09 05:35:00,
2013-09-08 22:40:00,64.0,42.8,29.71,WSW,250,0.0,0.0,46,0.00,,,0.00,Weather View 32 v70,2013-09-09 05:40:00,
2013-09-08 22:45:00,64.0,43.4,29.71,WSW,250,0.0,0.0,47,0.00,,,0.00,Weather View 32 v70,2013-09-09 05:45:00,
2013-09-08 22:50:00,63.9,43.7,29.71,WSW,250,0.0,0.0,48,0.00,,,0.00,Weather View 32 v70,2013-09-09 05:50:00,
2013-09-08 23:00:00,63.7,43.6,29.71,WSW,250,0.0,0.0,48,0.00,,,0.00,Weather View 32 v70,2013-09-09 06:00:00,
2013-09-08 23:05:00,63.7,44.1,29.71,WSW,250,0.0,0.0,49,0.00,,,0.00,Weather View 32 v70,2013-09-09 06:05:00,
2013-09-08 23:10:00,63.5,44.0,29.71,WSW,250,0.0,0.0,49,0.00,,,0.00,Weather View 32 v70,2013-09-09 06:10:00,
2013-09-08 23:20:00,63.3,44.3,29.71,WSW,250,0.0,0.0,50,0.00,,,0.00,Weather View 32 v70,2013-09-09 06:20:00,
2013-09-08 23:25:00,63.1,44.2,29.71,WSW,250,0.0,0.0,50,0.00,,,0.00,Weather View 32 v70,2013-09-09 06:25:00,
2013-09-08 23:30:00,63.1,44.2,29.71,WSW,250,0.0,0.0,50,0.00,,,0.00,Weather View 32 v70,2013-09-09 06:30:00,
2013-09-08 23:35:00,63.1,44.2,29.71,WSW,250,0.0,0.0,50,0.00,,,0.00,Weather View 32 v70,2013-09-09 06:35:00,
2013-09-08 23:45:00,63.0,44.0,29.71,WSW,250,0.0,0.0,50,0.00,,,0.00,Weather View 32 v70,2013-09-09 06:45:00,
2013-09-08 23:50:00,63.0,44.0,29.71,WSW,250,0.0,0.0,50,0.00,,,0.00,Weather View 32 v70,2013-09-09 06:50:00,
2013-09-08 23:55:00,63.1,44.2,29.71,WSW,250,0.0,0.0,50,0.00,,,0.00,Weather View 32 v70,2013-09-09 06:55:00,